FW4170 Weather Reports


time (UTC)temp
C
wind
direction
speed
KPH
gust
KPH
rain 1hr
cm
rain 24hr
cm
rain mn
cm
humidity
%
barometer
mb
20260504192006 13 179 0.0 3.2 0.00 0.00 0.00 41 1017.6
20260504191526 13 135 0.0 3.2 0.00 0.00 0.00 40 1017.6
20260504191005 13 67 0.0 1.6 0.00 0.00 0.00 39 1017.5
20260504190505 13 58 1.6 6.4 0.00 0.00 0.00 37 1017.4
20260504190005 13 52 4.8 8.0 0.00 0.00 0.00 36 1017.4
20260504185505 13 50 6.4 8.0 0.00 0.00 0.00 36 1017.3
20260504185026 14 56 4.8 8.0 0.00 0.00 0.00 35 1017.3
20260504184526 14 54 4.8 9.7 0.00 0.00 0.00 35 1017.3
20260504184005 15 54 4.8 9.7 0.00 0.00 0.00 34 1017.2
20260504183506 15 45 4.8 8.0 0.00 0.00 0.00 33 1017.1
20260504183005 16 38 1.6 8.0 0.00 0.00 0.00 32 1017.1
20260504182526 16 54 1.6 6.4 0.00 0.00 0.00 32 1017.1
20260504182026 16 52 1.6 3.2 0.00 0.00 0.00 30 1017.0
20260504181526 17 55 0.0 3.2 0.00 0.00 0.00 27 1017.0
20260504181005 17 15 0.0 3.2 0.00 0.00 0.00 26 1016.9
20260504180505 17 334 0.0 3.2 0.00 0.00 0.00 25 1016.9
20260504180005 17 306 0.0 3.2 0.00 0.00 0.00 24 1016.9
20260504175526 17 180 0.0 3.2 0.00 0.00 0.00 23 1016.8
20260504175005 18 180 1.6 6.4 0.00 0.00 0.00 22 1016.9
20260504174505 18 180 4.8 6.4 0.00 0.00 0.00 22 1016.7
20260504174005 18 188 4.8 8.0 0.00 0.00 0.00 22 1016.7
20260504173505 18 201 4.8 8.0 0.00 0.00 0.00 22 1016.7
20260504173005 18 203 3.2 8.0 0.00 0.00 0.00 21 1016.6
20260504172505 18 187 4.8 9.7 0.00 0.00 0.00 21 1016.6
20260504172005 19 202 8.0 16.1 0.00 0.00 0.00 21 1016.5
20260504171505 19 212 8.0 16.1 0.00 0.00 0.00 21 1016.5
20260504171006 19 196 9.7 16.1 0.00 0.00 0.00 21 1016.5
20260504170505 19 194 11.3 16.1 0.00 0.00 0.00 21 1016.4
20260504151026 21 189 16.1 24.1 0.00 0.00 0.00 15 1016.5
20260504150505 21 176 14.5 24.1 0.00 0.00 0.00 15 1016.6
20260504141005 22 206 14.5 25.7 0.00 0.00 0.00 20 1016.9
20260504140504 22 196 14.5 24.1 0.00 0.00 0.00 20 1016.9
20260504130505 22 161 11.3 19.3 0.00 0.00 0.00 15 1017.2
20260504110504 20 354 4.8 9.7 0.00 0.00 0.00 23 1018.5
20260504100503 18 269 3.2 9.7 0.00 0.00 0.00 30 1019.3
20260504082003 14 349 3.2 8.0 0.00 0.00 0.00 44 1020.4
20260504081503 14 355 1.6 3.2 0.00 0.00 0.00 47 1020.4
20260504081024 13 202 1.6 6.4 0.00 0.00 0.00 50 1020.5
20260504080503 13 193 3.2 6.4 0.00 0.00 0.00 51 1020.5
20260504050507 2 52 1.6 3.2 0.00 0.00 0.00 76 1021.2
20260504050007 2 42 1.6 4.8 0.00 0.00 0.00 76 1021.2
20260504045507 2 43 1.6 6.4 0.00 0.00 0.00 77 1021.2
20260504045007 2 49 3.2 6.4 0.00 0.00 0.00 77 1021.1
20260504044507 1 97 1.6 4.8 0.00 0.00 0.00 78 1021.2
20260504044007 1 138 1.6 3.2 0.00 0.00 0.00 78 1021.2
20260504043507 1 130 0.0 3.2 0.00 0.00 0.00 78 1021.3
20260504043028 1 360 0.0 1.6 0.00 0.00 0.00 78 1021.1
20260504042528 1 5 0.0 3.2 0.00 0.00 0.00 78 1021.2
20260504042007 1 25 1.6 3.2 0.00 0.00 0.00 77 1021.2
20260504041507 1 33 1.6 3.2 0.00 0.00 0.00 77 1021.2
20260504041007 1 28 1.6 4.8 0.00 0.00 0.00 77 1021.1
20260504040529 1 27 3.2 4.8 0.00 0.00 0.00 77 1021.1
20260504040007 0 37 1.6 4.8 0.00 0.00 0.00 77 1021.0
20260504035528 0 52 0.0 3.2 0.00 0.00 0.00 78 1021.1
20260504035007 0 45 0.0 3.2 0.00 0.00 0.00 77 1021.0
20260504034508 0 45 0.0 1.6 0.00 0.00 0.00 77 1020.9
20260504034007 0 45 0.0 1.6 0.00 0.00 0.00 77 1020.9
20260504033507 0 0 0.0 0.0 0.00 0.00 0.00 76 1020.8
20260504033007 0 0 0.0 0.0 0.00 0.00 0.00 76 1020.8
20260504032528 0 0 0.0 0.0 0.00 0.00 0.00 77 1020.9
20260504032007 1 0 0.0 0.0 0.00 0.00 0.00 77 1020.8
20260504031528 1 45 0.0 1.6 0.00 0.00 0.00 77 1020.8
20260504031006 1 45 0.0 3.2 0.00 0.00 0.00 77 1020.9
20260504030507 1 45 0.0 3.2 0.00 0.00 0.00 77 1021.0
20260504030008 1 45 0.0 3.2 0.00 0.00 0.00 77 1020.9
20260504025507 1 25 1.6 4.8 0.00 0.00 0.00 76 1020.8
20260504025007 1 4 0.0 4.8 0.00 0.00 0.00 76 1020.8
20260504024507 1 24 0.0 3.2 0.00 0.00 0.00 76 1020.8
20260504024006 1 42 0.0 3.2 0.00 0.00 0.00 76 1020.8
20260504023506 1 55 0.0 3.2 0.00 0.00 0.00 76 1020.8
20260504023007 1 62 0.0 3.2 0.00 0.00 0.00 75 1020.8
20260504022506 1 67 1.6 3.2 0.00 0.00 0.00 75 1020.8
20260504022006 1 62 1.6 6.4 0.00 0.00 0.00 75 1020.8
20260504021506 1 38 1.6 6.4 0.00 0.00 0.00 75 1020.9
20260504021006 1 359 0.0 3.2 0.00 0.00 0.00 75 1020.8
20260504020506 1 358 0.0 3.2 0.00 0.00 0.00 75 1020.8
20260504020007 1 349 0.0 3.2 0.00 0.00 0.00 75 1020.9
20260504015507 1 348 0.0 1.6 0.00 0.00 0.00 74 1020.8
20260504015006 1 10 0.0 3.2 0.00 0.00 0.00 74 1020.8
20260504014506 1 16 0.0 3.2 0.00 0.00 0.00 74 1020.8
20260504014007 2 24 0.0 3.2 0.00 0.00 0.00 74 1020.7
20260504013507 2 38 0.0 3.2 0.00 0.00 0.00 74 1020.7
20260504013006 2 42 0.0 3.2 0.00 0.00 0.00 74 1020.7
20260504012527 2 53 0.0 3.2 0.00 0.00 0.00 74 1020.7
20260504012006 2 90 0.0 1.6 0.00 0.00 0.00 74 1020.8
20260504011507 2 90 0.0 1.6 0.00 0.00 0.00 73 1020.8
20260504011028 2 90 0.0 3.2 0.00 0.00 0.00 73 1020.7
20260504010506 2 90 0.0 3.2 0.00 0.00 0.00 73 1020.8
20260504010007 2 90 0.0 1.6 0.00 0.00 0.00 73 1020.6
20260504005527 2 90 0.0 1.6 0.00 0.00 0.00 73 1020.6
20260504005006 2 0 0.0 0.0 0.00 0.00 0.00 72 1020.7
20260504004506 2 63 0.0 3.2 0.00 0.00 0.00 72 1020.7
20260504004028 2 69 0.0 3.2 0.00 0.00 0.00 72 1020.8
20260504003507 3 55 0.0 3.2 0.00 0.00 0.00 72 1020.7
20260504003006 3 13 0.0 3.2 0.00 0.00 0.00 72 1020.6
20260504002506 3 10 0.0 3.2 0.00 0.00 0.00 72 1020.8
20260504002006 3 26 0.0 3.2 0.00 0.00 0.00 72 1020.8
20260504001527 3 45 0.0 1.6 0.00 0.00 0.00 72 1020.8
20260504001006 3 45 0.0 1.6 0.00 0.00 0.00 72 1020.8
20260504000506 3 45 0.0 1.6 0.00 0.00 0.00 72 1020.8
20260504000006 3 45 0.0 1.6 0.00 0.00 0.00 72 1020.8
20260503235506 3 45 0.0 3.2 0.00 0.00 0.00 71 1020.8
20260503235027 3 45 0.0 3.2 0.00 0.00 0.00 71 1020.9
20260503234506 3 60 0.0 4.8 0.00 0.00 0.00 71 1021.0
20260503234006 3 71 0.0 4.8 0.00 0.00 0.00 72 1021.0
20260503233527 3 83 0.0 3.2 0.00 0.00 0.00 71 1020.9
20260503233027 3 80 0.0 3.2 0.00 0.00 0.00 71 1021.0
20260503232506 4 45 0.0 1.6 0.00 0.00 0.00 71 1021.0
20260503232006 4 63 0.0 3.2 0.00 0.00 0.00 70 1021.0
20260503231506 4 63 0.0 3.2 0.00 0.00 0.00 70 1020.9
20260503231006 4 90 0.0 1.6 0.00 0.00 0.00 70 1020.9
20260503230506 5 90 0.0 1.6 0.00 0.00 0.00 70 1020.9
20260503230006 5 90 0.0 3.2 0.00 0.00 0.00 70 1020.9
20260503225506 5 90 1.6 3.2 0.00 0.00 0.00 70 1020.9
20260503225006 5 84 0.0 3.2 0.00 0.00 0.00 69 1020.9
20260503224506 5 60 0.0 3.2 0.00 0.00 0.00 68 1021.0
20260503224006 5 360 0.0 1.6 0.00 0.00 0.00 68 1020.8
20260503223506 5 5 0.0 3.2 0.00 0.00 0.00 68 1020.8
20260503223006 5 4 0.0 3.2 0.00 0.00 0.00 69 1021.0
20260503222506 5 360 0.0 3.2 0.00 0.00 0.00 69 1020.9
20260503222006 5 178 1.6 3.2 0.00 0.00 0.00 69 1020.9
20260503221506 5 160 1.6 3.2 0.00 0.00 0.00 68 1020.9
20260503221006 6 72 1.6 4.8 0.00 0.00 0.00 67 1020.9
20260503220506 6 36 1.6 4.8 0.00 0.00 0.00 66 1020.8
20260503220006 6 45 1.6 4.8 0.00 0.00 0.00 67 1020.9
20260503215505 6 167 0.0 3.2 0.00 0.00 0.00 67 1021.0
20260503215027 6 180 0.0 3.2 0.00 0.00 0.00 67 1020.9
20260503214506 6 180 0.0 3.2 0.00 0.00 0.00 62 1020.7
20260503214027 6 180 0.0 3.2 0.00 0.00 0.00 62 1020.8
20260503213526 6 180 0.0 3.2 0.00 0.00 0.00 62 1020.8
20260503213006 6 180 0.0 3.2 0.00 0.00 0.00 62 1020.8
20260503212506 7 180 0.0 3.2 0.00 0.00 0.00 62 1020.6
20260503212006 7 180 0.0 3.2 0.00 0.00 0.00 61 1020.6
20260503211506 7 225 0.0 1.6 0.00 0.00 0.00 61 1020.7
20260503211006 7 225 0.0 3.2 0.00 0.00 0.00 61 1020.7
20260503210505 7 225 0.0 3.2 0.00 0.00 0.00 61 1020.6
20260503210007 7 225 1.6 3.2 0.00 0.00 0.00 61 1020.6
20260503205506 7 225 0.0 3.2 0.00 0.00 0.00 60 1020.6
20260503205005 7 197 0.0 3.2 0.00 0.00 0.00 60 1020.5
20260503204505 8 180 0.0 3.2 0.00 0.00 0.00 60 1020.6
20260503204006 8 180 0.0 1.6 0.00 0.00 0.00 59 1020.5
20260503203506 8 180 0.0 3.2 0.00 0.00 0.00 59 1020.5
20260503203006 8 182 1.6 3.2 0.00 0.00 0.00 58 1020.5
20260503202505 8 183 1.6 3.2 0.00 0.00 0.00 58 1020.6
20260503202006 8 342 0.0 3.2 0.00 0.00 0.00 56 1020.4
20260503201506 9 275 1.6 4.8 0.00 0.00 0.00 56 1020.3
20260503201006 9 207 1.6 4.8 0.00 0.00 0.00 56 1020.3
20260503200505 9 143 0.0 3.2 0.00 0.00 0.00 55 1020.4
20260503200005 9 17 0.0 3.2 0.00 0.00 0.00 54 1020.3
20260503195526 10 135 0.0 1.6 0.00 0.00 0.00 53 1020.3
20260503195005 10 213 0.0 3.2 0.00 0.00 0.00 53 1020.2
20260503194505 10 213 0.0 3.2 0.00 0.00 0.00 53 1020.3
20260503194005 10 180 0.0 1.6 0.00 0.00 0.00 52 1020.2
20260503193506 11 180 0.0 1.6 0.00 0.00 0.00 51 1020.3
20260503193005 11 172 1.6 3.2 0.00 0.00 0.00 51 1020.1
20260503192505 11 172 1.6 3.2 0.00 0.00 0.00 46 1020.2